Year,Month,Day,Hour,Minute,Value (Times are PST for temperature in C)
2009,01,18,00,00,4.40
2009,01,18,00,01,4.30
2009,01,18,00,02,4.30
2009,01,18,00,03,4.30
2009,01,18,00,04,4.30
2009,01,18,00,05,4.30
2009,01,18,00,06,4.20
2009,01,18,00,07,4.20
2009,01,18,00,08,4.20
2009,01,18,00,09,4.10
2009,01,18,00,10,4.10
2009,01,18,00,11,4.10
2009,01,18,00,12,4.00
2009,01,18,00,13,4.00
2009,01,18,00,14,3.90
2009,01,18,00,15,3.90
2009,01,18,00,16,3.90
2009,01,18,00,17,3.90
2009,01,18,00,18,3.90
2009,01,18,00,19,3.90
2009,01,18,00,20,3.90
2009,01,18,00,21,3.80
2009,01,18,00,22,3.80
2009,01,18,00,23,3.80
2009,01,18,00,24,3.80
2009,01,18,00,25,3.80
2009,01,18,00,26,3.80
2009,01,18,00,27,3.80
2009,01,18,00,28,3.80
2009,01,18,00,29,3.80
2009,01,18,00,30,3.70
2009,01,18,00,31,3.70
2009,01,18,00,32,3.70
2009,01,18,00,33,3.60
2009,01,18,00,34,3.60
2009,01,18,00,35,3.60
2009,01,18,00,36,3.50
2009,01,18,00,37,3.50
2009,01,18,00,38,3.40
2009,01,18,00,39,3.40
2009,01,18,00,40,3.30
2009,01,18,00,41,3.30
2009,01,18,00,42,3.30
2009,01,18,00,43,3.30
2009,01,18,00,44,3.20
2009,01,18,00,45,3.20
2009,01,18,00,46,3.20
2009,01,18,00,47,3.10
2009,01,18,00,48,3.10
2009,01,18,00,49,3.10
2009,01,18,00,50,3.10
2009,01,18,00,51,3.10
2009,01,18,00,52,3.10
2009,01,18,00,53,3.00
2009,01,18,00,54,3.00
2009,01,18,00,55,2.90
2009,01,18,00,56,2.90
2009,01,18,00,57,2.80
2009,01,18,00,58,2.80
2009,01,18,00,59,2.80
2009,01,18,01,00,2.80
2009,01,18,01,01,2.70
2009,01,18,01,02,2.70
2009,01,18,01,03,2.70
2009,01,18,01,04,2.60
2009,01,18,01,05,2.60
2009,01,18,01,06,2.50
2009,01,18,01,07,2.50
2009,01,18,01,08,2.40
2009,01,18,01,09,2.40
2009,01,18,01,10,2.40
2009,01,18,01,11,2.40
2009,01,18,01,12,2.40
2009,01,18,01,13,2.40
2009,01,18,01,14,2.50
2009,01,18,01,15,2.50
2009,01,18,01,16,2.50
2009,01,18,01,17,2.50
2009,01,18,01,18,2.40
2009,01,18,01,19,2.40
2009,01,18,01,20,2.40
2009,01,18,01,21,2.30
2009,01,18,01,22,2.30
2009,01,18,01,23,2.30
2009,01,18,01,24,2.20
2009,01,18,01,25,2.20
2009,01,18,01,26,2.20
2009,01,18,01,27,2.20
2009,01,18,01,28,2.20
2009,01,18,01,29,2.10
2009,01,18,01,30,2.10
2009,01,18,01,31,2.10
2009,01,18,01,32,2.10
2009,01,18,01,33,2.10
2009,01,18,01,34,2.10
2009,01,18,01,35,2.10
2009,01,18,01,36,2.00
2009,01,18,01,37,1.90
2009,01,18,01,38,2.00
2009,01,18,01,39,2.00
2009,01,18,01,40,2.30
2009,01,18,01,41,2.40
2009,01,18,01,42,2.50
2009,01,18,01,43,2.60
2009,01,18,01,44,2.60
2009,01,18,01,45,2.60
2009,01,18,01,46,2.60
2009,01,18,01,47,2.60
2009,01,18,01,48,2.60
2009,01,18,01,49,2.50
2009,01,18,01,50,2.50
2009,01,18,01,51,2.40
2009,01,18,01,52,2.30
2009,01,18,01,53,2.30
2009,01,18,01,54,2.30
2009,01,18,01,55,2.30
2009,01,18,01,56,2.30
2009,01,18,01,57,2.30
2009,01,18,01,58,2.30
2009,01,18,01,59,2.30
2009,01,18,02,00,2.30
2009,01,18,02,01,2.30
2009,01,18,02,02,2.30
2009,01,18,02,03,2.40
2009,01,18,02,04,2.50
2009,01,18,02,05,2.70
2009,01,18,02,06,2.90
2009,01,18,02,07,3.00
2009,01,18,02,08,3.20
2009,01,18,02,09,3.30
2009,01,18,02,10,3.40
2009,01,18,02,11,3.50
2009,01,18,02,12,3.60
2009,01,18,02,13,3.70
2009,01,18,02,14,3.80
2009,01,18,02,15,3.80
2009,01,18,02,16,3.70
2009,01,18,02,17,3.70
2009,01,18,02,18,3.70
2009,01,18,02,19,3.70
2009,01,18,02,20,3.70
2009,01,18,02,21,3.70
2009,01,18,02,22,3.60
2009,01,18,02,23,3.60
2009,01,18,02,24,3.60
2009,01,18,02,25,3.70
2009,01,18,02,26,3.70
2009,01,18,02,27,3.70
2009,01,18,02,28,3.70
2009,01,18,02,29,3.70
2009,01,18,02,30,3.70
2009,01,18,02,31,3.80
2009,01,18,02,32,3.90
2009,01,18,02,33,4.00
2009,01,18,02,34,4.10
2009,01,18,02,35,4.10
2009,01,18,02,36,4.20
2009,01,18,02,37,4.30
2009,01,18,02,38,4.30
2009,01,18,02,39,4.50
2009,01,18,02,40,4.50
2009,01,18,02,41,4.60
2009,01,18,02,42,4.70
2009,01,18,02,43,4.70
2009,01,18,02,44,4.80
2009,01,18,02,45,4.90
2009,01,18,02,46,5.00
2009,01,18,02,47,5.10
2009,01,18,02,48,5.20
2009,01,18,02,49,5.30
2009,01,18,02,50,5.30
2009,01,18,02,51,5.30
2009,01,18,02,52,5.30
2009,01,18,02,53,5.30
2009,01,18,02,54,5.30
2009,01,18,02,55,5.30
2009,01,18,02,56,5.30
2009,01,18,02,57,5.20
2009,01,18,02,58,5.20
2009,01,18,02,59,5.20
2009,01,18,03,00,5.20
2009,01,18,03,01,5.20
2009,01,18,03,02,5.20
2009,01,18,03,03,5.20
2009,01,18,03,04,5.20
2009,01,18,03,05,5.20
2009,01,18,03,06,5.20
2009,01,18,03,07,5.20
2009,01,18,03,08,5.30
2009,01,18,03,09,5.40
2009,01,18,03,10,5.50
2009,01,18,03,11,5.60
2009,01,18,03,12,5.70
2009,01,18,03,13,5.80
2009,01,18,03,14,6.00
2009,01,18,03,15,6.30
2009,01,18,03,16,6.40
2009,01,18,03,17,6.40
2009,01,18,03,18,6.50
2009,01,18,03,19,6.50
2009,01,18,03,20,6.40
2009,01,18,03,21,6.40
2009,01,18,03,22,6.40
2009,01,18,03,23,6.30
2009,01,18,03,24,6.20
2009,01,18,03,25,6.10
2009,01,18,03,26,6.10
2009,01,18,03,27,6.00
2009,01,18,03,28,5.90
2009,01,18,03,29,5.90
2009,01,18,03,30,5.90
2009,01,18,03,31,5.80
2009,01,18,03,32,5.70
2009,01,18,03,33,5.70
2009,01,18,03,34,5.60
2009,01,18,03,35,5.60
2009,01,18,03,36,5.50
2009,01,18,03,37,5.50
2009,01,18,03,38,5.40
2009,01,18,03,39,5.30
2009,01,18,03,40,5.30
2009,01,18,03,41,5.30
2009,01,18,03,42,5.30
2009,01,18,03,43,5.40
2009,01,18,03,44,5.40
2009,01,18,03,45,5.40
2009,01,18,03,46,5.40
2009,01,18,03,47,5.40
2009,01,18,03,48,5.40
2009,01,18,03,49,5.40
2009,01,18,03,50,5.40
2009,01,18,03,51,5.30
2009,01,18,03,52,5.30
2009,01,18,03,53,5.30
2009,01,18,03,54,5.30
2009,01,18,03,55,5.30
2009,01,18,03,56,5.30
2009,01,18,03,57,5.30
2009,01,18,03,58,5.20
2009,01,18,03,59,5.20
2009,01,18,04,00,5.10
2009,01,18,04,01,5.10
2009,01,18,04,02,5.00
2009,01,18,04,03,5.00
2009,01,18,04,04,5.00
2009,01,18,04,05,4.90
2009,01,18,04,06,4.90
2009,01,18,04,07,4.90
2009,01,18,04,08,4.90
2009,01,18,04,09,5.00
2009,01,18,04,10,5.10
2009,01,18,04,11,5.30
2009,01,18,04,12,5.50
2009,01,18,04,13,5.60
2009,01,18,04,14,5.70
2009,01,18,04,15,5.80
2009,01,18,04,16,5.80
2009,01,18,04,17,5.80
2009,01,18,04,18,5.80
2009,01,18,04,19,5.80
2009,01,18,04,20,5.80
2009,01,18,04,21,5.80
2009,01,18,04,22,5.90
2009,01,18,04,23,5.90
2009,01,18,04,24,6.00
2009,01,18,04,25,6.10
2009,01,18,04,26,6.10
2009,01,18,04,27,6.20
2009,01,18,04,28,6.30
2009,01,18,04,29,6.50
2009,01,18,04,30,6.50
2009,01,18,04,31,6.60
2009,01,18,04,32,6.60
2009,01,18,04,33,6.60
2009,01,18,04,34,6.60
2009,01,18,04,35,6.60
2009,01,18,04,36,6.50
2009,01,18,04,37,6.50
2009,01,18,04,38,6.50
2009,01,18,04,39,6.50
2009,01,18,04,40,6.60
2009,01,18,04,41,6.70
2009,01,18,04,42,6.80
2009,01,18,04,43,6.90
2009,01,18,04,44,7.10
2009,01,18,04,45,7.20
2009,01,18,04,46,7.20
2009,01,18,04,47,7.20
2009,01,18,04,48,7.20
2009,01,18,04,49,7.30
2009,01,18,04,50,7.20
2009,01,18,04,51,7.20
2009,01,18,04,52,7.20
2009,01,18,04,53,7.10
2009,01,18,04,54,7.10
2009,01,18,04,55,7.00
2009,01,18,04,56,7.00
2009,01,18,04,57,7.00
2009,01,18,04,58,6.90
2009,01,18,04,59,6.80
2009,01,18,05,00,6.70
2009,01,18,05,01,6.60
2009,01,18,05,02,6.50
2009,01,18,05,03,6.50
2009,01,18,05,04,6.40
2009,01,18,05,05,6.40
2009,01,18,05,06,6.30
2009,01,18,05,07,6.30
2009,01,18,05,08,6.30
2009,01,18,05,09,6.40
2009,01,18,05,10,6.40
2009,01,18,05,11,6.50
2009,01,18,05,12,6.60
2009,01,18,05,13,6.50
2009,01,18,05,14,6.60
2009,01,18,05,15,6.60
2009,01,18,05,16,6.60
2009,01,18,05,17,6.60
2009,01,18,05,18,6.50
2009,01,18,05,19,6.40
2009,01,18,05,20,6.40
2009,01,18,05,21,6.40
2009,01,18,05,22,6.50
2009,01,18,05,23,6.60
2009,01,18,05,24,6.50
2009,01,18,05,25,6.50
2009,01,18,05,26,6.40
2009,01,18,05,27,6.30
2009,01,18,05,28,6.30
2009,01,18,05,29,6.30
2009,01,18,05,30,6.40
2009,01,18,05,31,6.40
2009,01,18,05,32,6.40
2009,01,18,05,33,6.30
2009,01,18,05,34,6.30
2009,01,18,05,35,6.20
2009,01,18,05,36,6.10
2009,01,18,05,37,6.00
2009,01,18,05,38,5.90
2009,01,18,05,39,5.80
2009,01,18,05,40,5.80
2009,01,18,05,41,5.70
2009,01,18,05,42,5.70
2009,01,18,05,43,5.70
2009,01,18,05,44,5.60
2009,01,18,05,45,5.50
2009,01,18,05,46,5.50
2009,01,18,05,47,5.40
2009,01,18,05,48,5.40
2009,01,18,05,49,5.30
2009,01,18,05,50,5.30
2009,01,18,05,51,5.30
2009,01,18,05,52,5.20
2009,01,18,05,53,5.20
2009,01,18,05,54,5.30
2009,01,18,05,55,5.20
2009,01,18,05,56,5.20
2009,01,18,05,57,5.10
2009,01,18,05,58,5.10
2009,01,18,05,59,5.10
2009,01,18,06,00,5.10
2009,01,18,06,01,5.10
2009,01,18,06,02,5.10
2009,01,18,06,03,5.10
2009,01,18,06,04,5.20
2009,01,18,06,05,5.20
2009,01,18,06,06,5.20
2009,01,18,06,07,5.20
2009,01,18,06,08,5.20
2009,01,18,06,09,5.10
2009,01,18,06,10,5.10
2009,01,18,06,11,5.00
2009,01,18,06,12,5.00
2009,01,18,06,13,4.90
2009,01,18,06,14,4.80
2009,01,18,06,15,4.70
2009,01,18,06,16,4.50
2009,01,18,06,17,4.30
2009,01,18,06,18,4.10
2009,01,18,06,19,4.00
2009,01,18,06,20,3.90
2009,01,18,06,21,3.80
2009,01,18,06,22,3.70
2009,01,18,06,23,3.60
2009,01,18,06,24,3.40
2009,01,18,06,25,3.30
2009,01,18,06,26,3.20
2009,01,18,06,27,3.20
2009,01,18,06,28,3.00
2009,01,18,06,29,2.90
2009,01,18,06,30,2.90
2009,01,18,06,31,2.80
2009,01,18,06,32,2.70
2009,01,18,06,33,2.70
2009,01,18,06,34,2.60
2009,01,18,06,35,2.60
2009,01,18,06,36,2.50
2009,01,18,06,37,2.50
2009,01,18,06,38,2.40
2009,01,18,06,39,2.40
2009,01,18,06,40,2.30
2009,01,18,06,41,2.30
2009,01,18,06,42,2.20
2009,01,18,06,43,2.20
2009,01,18,06,44,2.10
2009,01,18,06,45,2.10
2009,01,18,06,46,2.00
2009,01,18,06,47,2.00
2009,01,18,06,48,1.90
2009,01,18,06,49,1.80
2009,01,18,06,50,1.80
2009,01,18,06,51,1.80
2009,01,18,06,52,1.80
2009,01,18,06,53,1.70
2009,01,18,06,54,1.70
2009,01,18,06,55,1.70
2009,01,18,06,56,1.70
2009,01,18,06,57,1.60
2009,01,18,06,58,1.60
2009,01,18,06,59,1.60
2009,01,18,07,00,1.50
2009,01,18,07,01,1.50
2009,01,18,07,02,1.40
2009,01,18,07,03,1.30
2009,01,18,07,04,1.30
2009,01,18,07,05,1.30
2009,01,18,07,06,1.30
2009,01,18,07,07,1.30
2009,01,18,07,08,1.20
2009,01,18,07,09,1.20
2009,01,18,07,10,1.10
2009,01,18,07,11,1.10
2009,01,18,07,12,1.00
2009,01,18,07,13,1.00
2009,01,18,07,14,0.90
2009,01,18,07,15,0.90
2009,01,18,07,16,0.80
2009,01,18,07,17,0.80
2009,01,18,07,18,0.80
2009,01,18,07,19,0.80
2009,01,18,07,20,0.80
2009,01,18,07,21,0.70
2009,01,18,07,22,0.70
2009,01,18,07,23,0.70
2009,01,18,07,24,0.80
2009,01,18,07,25,0.80
2009,01,18,07,26,0.80
2009,01,18,07,27,0.90
2009,01,18,07,28,0.90
2009,01,18,07,29,1.00
2009,01,18,07,30,1.00
2009,01,18,07,31,1.10
2009,01,18,07,32,1.20
2009,01,18,07,33,1.30
2009,01,18,07,34,1.30
2009,01,18,07,35,1.30
2009,01,18,07,36,1.40
2009,01,18,07,37,1.50
2009,01,18,07,38,1.60
2009,01,18,07,39,1.70
2009,01,18,07,40,1.80
2009,01,18,07,41,1.90
2009,01,18,07,42,2.00
2009,01,18,07,43,2.10
2009,01,18,07,44,2.20
2009,01,18,07,45,2.40
2009,01,18,07,46,2.50
2009,01,18,07,47,2.60
2009,01,18,07,48,2.70
2009,01,18,07,49,2.80
2009,01,18,07,50,2.90
2009,01,18,07,51,2.90
2009,01,18,07,52,3.00
2009,01,18,07,53,3.00
2009,01,18,07,54,3.10
2009,01,18,07,55,3.10
2009,01,18,07,56,3.20
2009,01,18,07,57,3.20
2009,01,18,07,58,3.30
2009,01,18,07,59,3.40
2009,01,18,08,00,3.40
2009,01,18,08,01,3.50
2009,01,18,08,02,3.60
2009,01,18,08,03,3.70
2009,01,18,08,04,3.70
2009,01,18,08,05,3.80
2009,01,18,08,06,3.90
2009,01,18,08,07,3.90
2009,01,18,08,08,4.00
2009,01,18,08,09,4.00
2009,01,18,08,10,4.00
2009,01,18,08,11,4.00
2009,01,18,08,12,4.00
2009,01,18,08,13,4.00
2009,01,18,08,14,4.10
2009,01,18,08,15,4.10
2009,01,18,08,16,4.20
2009,01,18,08,17,4.20
2009,01,18,08,18,4.20
2009,01,18,08,19,4.20
2009,01,18,08,20,4.20
2009,01,18,08,21,4.10
2009,01,18,08,22,4.10
2009,01,18,08,23,4.20
2009,01,18,08,24,4.20
2009,01,18,08,25,4.20
2009,01,18,08,26,4.20
2009,01,18,08,27,4.20
2009,01,18,08,28,4.20
2009,01,18,08,29,4.20
2009,01,18,08,30,4.20
2009,01,18,08,31,4.20
2009,01,18,08,32,4.20
2009,01,18,08,33,4.30
2009,01,18,08,34,4.40
2009,01,18,08,35,4.40
2009,01,18,08,36,4.40
2009,01,18,08,37,4.50
2009,01,18,08,38,4.50
2009,01,18,08,39,4.50
2009,01,18,08,40,4.50
2009,01,18,08,41,4.50
2009,01,18,08,42,4.60
2009,01,18,08,43,4.60
2009,01,18,08,44,4.70
2009,01,18,08,45,4.70
2009,01,18,08,46,4.80
2009,01,18,08,47,4.80
2009,01,18,08,48,4.90
2009,01,18,08,49,4.90
2009,01,18,08,50,4.90
2009,01,18,08,51,4.90
2009,01,18,08,52,4.90
2009,01,18,08,53,4.90
2009,01,18,08,54,5.00
2009,01,18,08,55,5.10
2009,01,18,08,56,5.10
2009,01,18,08,57,5.20
2009,01,18,08,58,5.20
2009,01,18,08,59,5.20
2009,01,18,09,00,5.20
2009,01,18,09,01,5.20
2009,01,18,09,02,5.30
2009,01,18,09,03,5.30
2009,01,18,09,04,5.30
2009,01,18,09,05,5.40
2009,01,18,09,06,5.40
2009,01,18,09,07,5.50
2009,01,18,09,08,5.60
2009,01,18,09,09,5.70
2009,01,18,09,10,5.80
2009,01,18,09,11,5.80
2009,01,18,09,12,5.80
2009,01,18,09,13,5.90
2009,01,18,09,14,5.90
2009,01,18,09,15,6.00
2009,01,18,09,16,6.00
2009,01,18,09,17,6.10
2009,01,18,09,18,6.10
2009,01,18,09,19,6.30
2009,01,18,09,20,6.40
2009,01,18,09,21,6.50
2009,01,18,09,22,6.50
2009,01,18,09,23,6.60
2009,01,18,09,24,6.70
2009,01,18,09,25,6.70
2009,01,18,09,26,6.70
2009,01,18,09,27,6.80
2009,01,18,09,28,7.00
2009,01,18,09,29,7.20
2009,01,18,09,30,7.50
2009,01,18,09,31,7.60
2009,01,18,09,32,7.80
2009,01,18,09,33,8.00
2009,01,18,09,34,8.10
2009,01,18,09,35,8.20
2009,01,18,09,36,8.20
2009,01,18,09,37,8.30
2009,01,18,09,38,8.30
2009,01,18,09,39,8.20
2009,01,18,09,40,8.20
2009,01,18,09,41,8.20
2009,01,18,09,42,8.20
2009,01,18,09,43,8.20
2009,01,18,09,44,8.10
2009,01,18,09,45,8.10
2009,01,18,09,46,8.10
2009,01,18,09,47,8.00
2009,01,18,09,48,8.00
2009,01,18,09,49,8.00
2009,01,18,09,50,8.00
2009,01,18,09,51,8.00
2009,01,18,09,52,8.10
2009,01,18,09,53,8.10
2009,01,18,09,54,8.10
2009,01,18,09,55,8.20
2009,01,18,09,56,8.20
2009,01,18,09,57,8.20
2009,01,18,09,58,8.20
2009,01,18,09,59,8.30
2009,01,18,10,00,8.40
2009,01,18,10,01,8.50
2009,01,18,10,02,8.60
2009,01,18,10,03,8.70
2009,01,18,10,04,8.80
2009,01,18,10,05,8.90
2009,01,18,10,06,9.00
2009,01,18,10,07,9.00
2009,01,18,10,08,9.10
2009,01,18,10,09,9.10
2009,01,18,10,10,9.20
2009,01,18,10,11,9.20
2009,01,18,10,12,9.20
2009,01,18,10,13,9.30
2009,01,18,10,14,9.30
2009,01,18,10,15,9.30
2009,01,18,10,16,9.30
2009,01,18,10,17,9.30
2009,01,18,10,18,9.30
2009,01,18,10,19,9.30
2009,01,18,10,20,9.20
2009,01,18,10,21,9.20
2009,01,18,10,22,9.20
2009,01,18,10,23,9.20
2009,01,18,10,24,9.20
2009,01,18,10,25,9.20
2009,01,18,10,26,9.20
2009,01,18,10,27,9.20
2009,01,18,10,28,9.20
2009,01,18,10,29,9.20
2009,01,18,10,30,9.20
2009,01,18,10,31,9.20
2009,01,18,10,32,9.20
2009,01,18,10,33,9.20
2009,01,18,10,34,9.20
2009,01,18,10,35,9.20
2009,01,18,10,36,9.20
2009,01,18,10,37,9.20
2009,01,18,10,38,9.30
2009,01,18,10,39,9.30
2009,01,18,10,40,9.30
2009,01,18,10,41,9.30
2009,01,18,10,42,9.30
2009,01,18,10,43,9.30
2009,01,18,10,44,9.40
2009,01,18,10,45,9.40
2009,01,18,10,46,9.40
2009,01,18,10,47,9.50
2009,01,18,10,48,9.50
2009,01,18,10,49,9.60
2009,01,18,10,50,9.60
2009,01,18,10,51,9.70
2009,01,18,10,52,9.70
2009,01,18,10,53,9.70
2009,01,18,10,54,9.70
2009,01,18,10,55,9.70
2009,01,18,10,56,9.70
2009,01,18,10,57,9.80
2009,01,18,10,58,9.80
2009,01,18,10,59,9.80
2009,01,18,11,00,9.80
2009,01,18,11,01,9.90
2009,01,18,11,02,9.90
2009,01,18,11,03,9.90
2009,01,18,11,04,9.90
2009,01,18,11,05,9.90
2009,01,18,11,06,9.90
2009,01,18,11,07,9.90
2009,01,18,11,08,9.90
2009,01,18,11,09,9.90
2009,01,18,11,10,9.90
2009,01,18,11,11,9.90
2009,01,18,11,12,10.00
2009,01,18,11,13,10.00
2009,01,18,11,14,10.10
2009,01,18,11,15,10.10
2009,01,18,11,16,10.10
2009,01,18,11,17,10.10
2009,01,18,11,18,10.10
2009,01,18,11,19,10.10
2009,01,18,11,20,10.10
2009,01,18,11,21,10.20
2009,01,18,11,22,10.20
2009,01,18,11,23,10.20
2009,01,18,11,24,10.20
2009,01,18,11,25,10.20
2009,01,18,11,26,10.20
2009,01,18,11,27,10.10
2009,01,18,11,28,10.10
2009,01,18,11,29,10.10
2009,01,18,11,30,10.10
2009,01,18,11,31,10.10
2009,01,18,11,32,10.10
2009,01,18,11,33,10.10
2009,01,18,11,34,10.20
2009,01,18,11,35,10.20
2009,01,18,11,36,10.20
2009,01,18,11,37,10.20
2009,01,18,11,38,10.20
2009,01,18,11,39,10.20
2009,01,18,11,40,10.30
2009,01,18,11,41,10.40
2009,01,18,11,42,10.40
2009,01,18,11,43,10.50
2009,01,18,11,44,10.60
2009,01,18,11,45,10.60
2009,01,18,11,46,10.60
2009,01,18,11,47,10.60
2009,01,18,11,48,10.60
2009,01,18,11,49,10.60
2009,01,18,11,50,10.70
2009,01,18,11,51,10.70
2009,01,18,11,52,10.80
2009,01,18,11,53,10.80
2009,01,18,11,54,10.90
2009,01,18,11,55,10.90
2009,01,18,11,56,10.90
2009,01,18,11,57,11.00
2009,01,18,11,58,11.00
2009,01,18,11,59,11.00
2009,01,18,12,00,10.90
2009,01,18,12,01,10.90
2009,01,18,12,02,10.90
2009,01,18,12,03,10.90
2009,01,18,12,04,10.80
2009,01,18,12,05,10.80
2009,01,18,12,06,10.80
2009,01,18,12,07,10.80
2009,01,18,12,08,10.70
2009,01,18,12,09,10.70
2009,01,18,12,10,10.70
2009,01,18,12,11,10.60
2009,01,18,12,12,10.50
2009,01,18,12,13,10.50
2009,01,18,12,14,10.40
2009,01,18,12,15,10.40
2009,01,18,12,16,10.40
2009,01,18,12,17,10.40
2009,01,18,12,18,10.30
2009,01,18,12,19,10.30
2009,01,18,12,20,10.30
2009,01,18,12,21,10.30
2009,01,18,12,22,10.30
2009,01,18,12,23,10.30
2009,01,18,12,24,10.30
2009,01,18,12,25,10.30
2009,01,18,12,26,10.30
2009,01,18,12,27,10.40
2009,01,18,12,28,10.40
2009,01,18,12,29,10.40
2009,01,18,12,30,10.40
2009,01,18,12,31,10.40
2009,01,18,12,32,10.40
2009,01,18,12,33,10.40
2009,01,18,12,34,10.50
2009,01,18,12,35,10.50
2009,01,18,12,36,10.60
2009,01,18,12,37,10.60
2009,01,18,12,38,10.70
2009,01,18,12,39,10.70
2009,01,18,12,40,10.70
2009,01,18,12,41,10.70
2009,01,18,12,42,10.70
2009,01,18,12,43,10.70
2009,01,18,12,44,10.70
2009,01,18,12,45,10.70
2009,01,18,12,46,10.70
2009,01,18,12,47,10.70
2009,01,18,12,48,10.70
2009,01,18,12,49,10.70
2009,01,18,12,50,10.70
2009,01,18,12,51,10.70
2009,01,18,12,52,10.70
2009,01,18,12,53,10.70
2009,01,18,12,54,10.70
2009,01,18,12,55,10.60
2009,01,18,12,56,10.60
2009,01,18,12,57,10.60
2009,01,18,12,58,10.60
2009,01,18,12,59,10.60
2009,01,18,13,00,10.60
2009,01,18,13,01,10.60
2009,01,18,13,02,10.60
2009,01,18,13,03,10.60
2009,01,18,13,04,10.60
2009,01,18,13,05,10.60
2009,01,18,13,06,10.60
2009,01,18,13,07,10.60
2009,01,18,13,08,10.60
2009,01,18,13,09,10.60
2009,01,18,13,10,10.60
2009,01,18,13,11,10.60
2009,01,18,13,12,10.50
2009,01,18,13,13,10.60
2009,01,18,13,14,10.60
2009,01,18,13,15,10.60
2009,01,18,13,16,10.70
2009,01,18,13,17,10.70
2009,01,18,13,18,10.70
2009,01,18,13,19,10.70
2009,01,18,13,20,10.70
2009,01,18,13,21,10.70
2009,01,18,13,22,10.70
2009,01,18,13,23,10.70
2009,01,18,13,24,10.80
2009,01,18,13,25,10.80
2009,01,18,13,26,10.80
2009,01,18,13,27,10.80
2009,01,18,13,28,10.80
2009,01,18,13,29,10.80
2009,01,18,13,30,10.80
2009,01,18,13,31,10.80
2009,01,18,13,32,10.80
2009,01,18,13,33,10.80
2009,01,18,13,34,10.80
2009,01,18,13,35,10.80
2009,01,18,13,36,10.80
2009,01,18,13,37,10.80
2009,01,18,13,38,10.80
2009,01,18,13,39,10.80
2009,01,18,13,40,10.80
2009,01,18,13,41,10.80
2009,01,18,13,42,10.80
2009,01,18,13,43,10.90
2009,01,18,13,44,10.90
2009,01,18,13,45,10.90
2009,01,18,13,46,10.90
2009,01,18,13,47,10.90
2009,01,18,13,48,10.90
2009,01,18,13,49,10.90
2009,01,18,13,50,10.90
2009,01,18,13,51,10.90
2009,01,18,13,52,10.90
2009,01,18,13,53,10.90
2009,01,18,13,54,10.90
2009,01,18,13,55,10.90
2009,01,18,13,56,11.00
2009,01,18,13,57,11.00
2009,01,18,13,58,11.00
2009,01,18,13,59,11.00
2009,01,18,14,00,11.00
2009,01,18,14,01,11.00
2009,01,18,14,02,11.00
2009,01,18,14,03,11.00
2009,01,18,14,04,11.00
2009,01,18,14,05,11.10
2009,01,18,14,06,11.10
2009,01,18,14,07,11.10
2009,01,18,14,08,11.10
2009,01,18,14,09,11.10
2009,01,18,14,10,11.00
2009,01,18,14,11,11.00
2009,01,18,14,12,11.00
2009,01,18,14,13,11.00
2009,01,18,14,14,11.00
2009,01,18,14,15,10.90
2009,01,18,14,16,10.90
2009,01,18,14,17,10.80
2009,01,18,14,18,10.80
2009,01,18,14,19,10.80
2009,01,18,14,20,10.80
2009,01,18,14,21,10.80
2009,01,18,14,22,10.80
2009,01,18,14,23,10.80
2009,01,18,14,24,10.80
2009,01,18,14,25,10.80
2009,01,18,14,26,10.80
2009,01,18,14,27,10.80
2009,01,18,14,28,10.80
2009,01,18,14,29,10.80
2009,01,18,14,30,10.80
2009,01,18,14,31,10.90
2009,01,18,14,32,10.90
2009,01,18,14,33,10.90
2009,01,18,14,34,10.90
2009,01,18,14,35,10.90
2009,01,18,14,36,10.90
2009,01,18,14,37,10.80
2009,01,18,14,38,10.80
2009,01,18,14,39,10.80
2009,01,18,14,40,10.80
2009,01,18,14,41,10.80
2009,01,18,14,42,10.80
2009,01,18,14,43,10.90
2009,01,18,14,44,10.90
2009,01,18,14,45,10.90
2009,01,18,14,46,10.90
2009,01,18,14,47,10.90
2009,01,18,14,48,10.90
2009,01,18,14,49,10.90
2009,01,18,14,50,10.90
2009,01,18,14,51,10.90
2009,01,18,14,52,10.80
2009,01,18,14,53,10.80
2009,01,18,14,54,10.80
2009,01,18,14,55,10.80
2009,01,18,14,56,10.80
2009,01,18,14,57,10.80
2009,01,18,14,58,10.80
2009,01,18,14,59,10.80
2009,01,18,15,00,10.80
2009,01,18,15,01,10.80
2009,01,18,15,02,10.80
2009,01,18,15,03,10.80
2009,01,18,15,04,10.80
2009,01,18,15,05,10.80
2009,01,18,15,06,10.70
2009,01,18,15,07,10.70
2009,01,18,15,08,10.70
2009,01,18,15,09,10.70
2009,01,18,15,10,10.70
2009,01,18,15,11,10.60
2009,01,18,15,12,10.60
2009,01,18,15,13,10.60
2009,01,18,15,14,10.60
2009,01,18,15,15,10.60
2009,01,18,15,16,10.50
2009,01,18,15,17,10.50
2009,01,18,15,18,10.40
2009,01,18,15,19,10.40
2009,01,18,15,20,10.40
2009,01,18,15,21,10.40
2009,01,18,15,22,10.30
2009,01,18,15,23,10.30
2009,01,18,15,24,10.30
2009,01,18,15,25,10.30
2009,01,18,15,26,10.30
2009,01,18,15,27,10.30
2009,01,18,15,28,10.30
2009,01,18,15,29,10.30
2009,01,18,15,30,10.20
2009,01,18,15,31,10.20
2009,01,18,15,32,10.30
2009,01,18,15,33,10.30
2009,01,18,15,34,10.20
2009,01,18,15,35,10.20
2009,01,18,15,36,10.20
2009,01,18,15,37,10.20
2009,01,18,15,38,10.10
2009,01,18,15,39,10.10
2009,01,18,15,40,10.10
2009,01,18,15,41,10.10
2009,01,18,15,42,10.10
2009,01,18,15,43,10.10
2009,01,18,15,44,10.10
2009,01,18,15,45,10.00
2009,01,18,15,46,10.00
2009,01,18,15,47,9.90
2009,01,18,15,48,9.80
2009,01,18,15,49,9.80
2009,01,18,15,50,9.80
2009,01,18,15,51,9.90
2009,01,18,15,52,9.90
2009,01,18,15,53,9.90
2009,01,18,15,54,9.90
2009,01,18,15,55,9.90
2009,01,18,15,56,9.90
2009,01,18,15,57,9.90
2009,01,18,15,58,10.00
2009,01,18,15,59,10.10
2009,01,18,16,00,10.10
2009,01,18,16,01,10.10
2009,01,18,16,02,10.10
2009,01,18,16,03,10.10
2009,01,18,16,04,10.10
2009,01,18,16,05,10.10
2009,01,18,16,06,10.20
2009,01,18,16,07,10.20
2009,01,18,16,08,10.20
2009,01,18,16,09,10.10
2009,01,18,16,10,10.10
2009,01,18,16,11,10.00
2009,01,18,16,12,9.90
2009,01,18,16,13,9.90
2009,01,18,16,14,9.80
2009,01,18,16,15,9.70
2009,01,18,16,16,9.60
2009,01,18,16,17,9.50
2009,01,18,16,18,9.40
2009,01,18,16,19,9.30
2009,01,18,16,20,9.30
2009,01,18,16,21,9.30
2009,01,18,16,22,9.30
2009,01,18,16,23,9.30
2009,01,18,16,24,9.30
2009,01,18,16,25,9.30
2009,01,18,16,26,9.30
2009,01,18,16,27,9.30
2009,01,18,16,28,9.40
2009,01,18,16,29,9.40
2009,01,18,16,30,9.40
2009,01,18,16,31,9.40
2009,01,18,16,32,9.40
2009,01,18,16,33,9.30
2009,01,18,16,34,9.30
2009,01,18,16,35,9.30
2009,01,18,16,36,9.30
2009,01,18,16,37,9.30
2009,01,18,16,38,9.30
2009,01,18,16,39,9.30
2009,01,18,16,40,9.30
2009,01,18,16,41,9.30
2009,01,18,16,42,9.30
2009,01,18,16,43,9.30
2009,01,18,16,44,9.20
2009,01,18,16,45,9.20
2009,01,18,16,46,9.20
2009,01,18,16,47,9.20
2009,01,18,16,48,9.20
2009,01,18,16,49,9.30
2009,01,18,16,50,9.30
2009,01,18,16,51,9.30
2009,01,18,16,52,9.20
2009,01,18,16,53,9.20
2009,01,18,16,54,9.10
2009,01,18,16,55,9.00
2009,01,18,16,56,9.00
2009,01,18,16,57,8.90
2009,01,18,16,58,8.80
2009,01,18,16,59,8.80
2009,01,18,17,00,8.80
2009,01,18,17,01,8.70
2009,01,18,17,02,8.70
2009,01,18,17,03,8.60
2009,01,18,17,04,8.50
2009,01,18,17,05,8.40
2009,01,18,17,06,8.40
2009,01,18,17,07,8.30
2009,01,18,17,08,8.20
2009,01,18,17,09,8.10
2009,01,18,17,10,8.10
2009,01,18,17,11,8.10
2009,01,18,17,12,8.10
2009,01,18,17,13,8.00
2009,01,18,17,14,8.00
2009,01,18,17,15,7.90
2009,01,18,17,16,7.90
2009,01,18,17,17,7.90
2009,01,18,17,18,7.90
2009,01,18,17,19,7.90
2009,01,18,17,20,7.90
2009,01,18,17,21,7.80
2009,01,18,17,22,7.80
2009,01,18,17,23,7.80
2009,01,18,17,24,7.70
2009,01,18,17,25,7.70
2009,01,18,17,26,7.60
2009,01,18,17,27,7.60
2009,01,18,17,28,7.60
2009,01,18,17,29,7.50
2009,01,18,17,30,7.50
2009,01,18,17,31,7.40
2009,01,18,17,32,7.30
2009,01,18,17,33,7.30
2009,01,18,17,34,7.30
2009,01,18,17,35,7.20
2009,01,18,17,36,7.20
2009,01,18,17,37,7.20
2009,01,18,17,38,7.20
2009,01,18,17,39,7.20
2009,01,18,17,40,7.20
2009,01,18,17,41,7.20
2009,01,18,17,42,7.20
2009,01,18,17,43,7.20
2009,01,18,17,44,7.20
2009,01,18,17,45,7.20
2009,01,18,17,46,7.20
2009,01,18,17,47,7.20
2009,01,18,17,48,7.20
2009,01,18,17,49,7.20
2009,01,18,17,50,7.20
2009,01,18,17,51,7.20
2009,01,18,17,52,7.20
2009,01,18,17,53,7.20